DW0051 Weather Reports


Display with metric or nautical units.
time (UTC)temp
F
wind
direction
speed
MPH
gust
MPH
rain 1hr
in
rain 24hr
in
rain mn
in
humidity
%
barometer
mb
20260506134516 82 231 1.0 10.0 0.00 0.00 0.00 34 1004.6
20260506133517 81 217 1.0 5.0 0.00 0.00 0.00 36 1004.7
20260506132516 80 232 0.0 11.0 0.00 0.00 0.00 36 1004.8
20260506131516 81 0.0 19.0 0.00 0.00 0.00 35 1004.9
20260506130516 82 0.0 12.0 0.00 0.00 0.00 37 1005.0
20260506125516 80 61 0.0 12.0 0.00 0.00 0.00 39 1005.2
20260506124516 79 188 2.0 9.0 0.00 0.00 0.00 41 1005.2
20260506123516 79 121 1.0 10.0 0.00 0.00 0.00 39 1005.5
20260506122517 79 74 2.0 11.0 0.00 0.00 0.00 39 1005.5
20260506121516 80 151 9.0 17.0 0.00 0.00 0.00 38 1005.7
20260506120516 77 53 2.0 10.0 0.00 0.00 0.00 40 1005.8
20260506115516 77 0.0 12.0 0.00 0.00 0.00 42 1006.0
20260506114536 78 138 0.0 10.0 0.00 0.00 0.00 42 1006.1
20260506113516 79 77 2.0 6.0 0.00 0.00 0.00 41 1006.2
20260506112516 76 157 3.0 10.0 0.00 0.00 0.00 44 1006.4
20260506111517 77 32 5.0 18.0 0.00 0.00 0.00 43 1006.5
20260506110516 77 67 1.0 9.0 0.00 0.00 0.00 45 1006.6
20260506105516 76 54 2.0 13.0 0.00 0.00 0.00 45 1006.8
20260506104516 77 73 6.0 13.0 0.00 0.00 0.00 45 1007.1
20260506103516 76 60 7.0 15.0 0.00 0.00 0.00 47 1006.9
20260506102515 76 45 2.0 8.0 0.00 0.00 0.00 47 1007.2
20260506101535 76 57 6.0 12.0 0.00 0.00 0.00 47 1007.3
20260506100515 76 44 5.0 12.0 0.00 0.00 0.00 46 1007.4
20260506095537 75 108 4.0 9.0 0.00 0.00 0.00 46 1007.6
20260506094515 76 133 3.0 8.0 0.00 0.00 0.00 46 1007.9
20260506093515 77 102 2.0 14.0 0.00 0.00 0.00 43 1007.8
20260506092556 75 324 0.0 7.0 0.00 0.00 0.00 46 1008.0
20260506091535 74 245 1.0 15.0 0.00 0.00 0.00 45 1008.1
20260506090515 75 116 1.0 7.0 0.00 0.00 0.00 46 1008.2
20260506085516 75 164 3.0 7.0 0.00 0.00 0.00 45 1008.2
20260506084516 75 0.0 7.0 0.00 0.00 0.00 45 1008.1
20260506083515 75 124 3.0 7.0 0.00 0.00 0.00 45 1008.3
20260506082536 76 103 1.0 9.0 0.00 0.00 0.00 43 1008.2
20260506081515 77 59 0.0 5.0 0.00 0.00 0.00 44 1008.3
20260506080515 76 92 0.0 4.0 0.00 0.00 0.00 45 1008.3
20260506073518 74 298 0.0 1.0 0.00 0.00 0.00 53 1008.6
20260506072518 73 0.0 0.0 0.00 0.00 0.00 50 1008.9
20260506071518 74 0.0 0.0 0.00 0.00 0.00 50 1009.0
20260506070518 73 0.0 0.0 0.00 0.00 0.00 53 1009.1
20260506062517 70 0.0 0.0 0.00 0.00 0.00 56 1009.5
20260506061518 69 0.0 0.0 0.00 0.00 0.00 63 1009.5
20260506060517 68 0.0 0.0 0.00 0.00 0.00 63 1009.5
20260506050515 58 0.0 0.0 0.00 0.00 0.00 82 1009.5
20260506044515 58 0.0 0.0 0.00 0.00 0.00 81 1009.5
20260506043515 58 0.0 0.0 0.00 0.00 0.00 80 1009.5
20260506042515 58 0.0 0.0 0.00 0.00 0.00 78 1009.3
20260506041535 58 0.0 0.0 0.00 0.00 0.00 78 1009.3
20260506040516 58 0.0 0.0 0.00 0.00 0.00 78 1009.2
20260506035515 58 0.0 0.0 0.00 0.00 0.00 78 1009.1
20260506034534 58 0.0 0.0 0.00 0.00 0.00 78 1009.0
20260506033515 59 0.0 0.0 0.00 0.00 0.00 77 1009.0
20260506032536 59 0.0 0.0 0.00 0.00 0.00 76 1008.9
20260506031515 59 0.0 2.0 0.00 0.00 0.00 76 1009.0
20260506030514 60 0.0 0.0 0.00 0.00 0.00 76 1009.0
20260506025514 60 0.0 4.0 0.00 0.00 0.00 76 1009.0
20260506024537 60 0.0 0.0 0.00 0.00 0.00 76 1009.0
20260506023517 60 0.0 0.0 0.00 0.00 0.00 77 1009.1
20260506022517 60 0.0 0.0 0.00 0.00 0.00 77 1009.1
20260506021517 60 0.0 4.0 0.00 0.00 0.00 77 1009.0
20260506020516 60 0.0 4.0 0.00 0.00 0.00 77 1008.9
20260506015517 60 0.0 0.0 0.00 0.00 0.00 76 1008.9
20260506014516 61 0.0 0.0 0.00 0.00 0.00 75 1008.7
20260506013516 61 0.0 6.0 0.00 0.00 0.00 75 1008.7
20260506012516 61 210 3.0 7.0 0.00 0.00 0.00 75 1008.6
20260506011516 62 233 2.0 8.0 0.00 0.00 0.00 74 1008.5
20260506010517 62 0.0 5.0 0.00 0.00 0.00 74 1008.4
20260506005516 62 212 3.0 7.0 0.00 0.00 0.00 74 1008.3
20260506004516 62 233 1.0 5.0 0.00 0.00 0.00 74 1008.3
20260506003516 62 0.0 6.0 0.00 0.00 0.00 73 1008.3
20260506002516 62 221 1.0 7.0 0.00 0.00 0.00 72 1008.3
20260506001516 63 0.0 4.0 0.00 0.00 0.00 71 1008.2
20260506000517 63 218 0.0 6.0 0.00 0.00 0.00 71 1008.1
20260505235517 63 244 0.0 5.0 0.00 0.00 0.00 71 1007.8
20260505234516 63 0.0 3.0 0.00 0.00 0.00 70 1007.8
20260505233536 63 225 1.0 3.0 0.00 0.00 0.00 70 1007.7
20260505232516 62 294 0.0 3.0 0.00 0.00 0.00 71 1007.5
20260505231516 62 0.0 0.0 0.00 0.00 0.00 71 1007.4
20260505230516 61 0.0 0.0 0.00 0.00 0.00 72 1007.2
20260505225517 61 0.0 0.0 0.00 0.00 0.00 72 1006.9
20260505224516 61 0.0 0.0 0.00 0.00 0.00 71 1006.7
20260505223516 62 0.0 0.0 0.00 0.00 0.00 70 1006.4
20260505222516 62 0.0 0.0 0.00 0.00 0.00 69 1006.3
20260505221516 63 0.0 0.0 0.00 0.00 0.00 67 1006.3
20260505220536 64 0.0 0.0 0.00 0.00 0.00 66 1006.3
20260505215536 64 229 0.0 1.0 0.00 0.00 0.00 64 1006.3
20260505214516 65 0.0 0.0 0.00 0.00 0.00 63 1006.2
20260505213536 65 0.0 3.0 0.00 0.00 0.00 62 1006.2
20260505212515 65 203 2.0 7.0 0.00 0.00 0.00 62 1006.0
20260505211516 65 210 0.0 2.0 0.00 0.00 0.00 62 1006.0
20260505210515 64 182 1.0 7.0 0.00 0.00 0.00 63 1005.9
20260505205515 62 225 0.0 7.0 0.00 0.00 0.00 66 1005.9
20260505204516 60 0.0 0.0 0.00 0.00 0.00 68 1005.7
20260505203536 60 0.0 0.0 0.00 0.00 0.00 70 1005.6
20260505202518 60 0.0 0.0 0.00 0.00 0.00 70 1005.4
20260505201518 60 0.0 0.0 0.00 0.00 0.00 69 1005.0
20260505200518 61 0.0 0.0 0.00 0.00 0.00 68 1004.8
20260505195518 61 0.0 0.0 0.00 0.00 0.00 66 1004.6
20260505194558 62 0.0 0.0 0.00 0.00 0.00 66 1004.6
20260505193518 62 0.0 0.0 0.00 0.00 0.00 65 1004.5
20260505192538 63 0.0 0.0 0.00 0.00 0.00 63 1004.5
20260505191518 64 0.0 0.0 0.00 0.00 0.00 62 1004.4
20260505190538 65 0.0 0.0 0.00 0.00 0.00 61 1004.3
20260505185558 66 0.0 0.0 0.00 0.00 0.00 59 1004.3
20260505184538 67 0.0 0.0 0.00 0.00 0.00 57 1004.3
20260505183518 68 87 0.0 1.0 0.00 0.00 0.00 55 1004.1
20260505182558 69 0.0 0.0 0.00 0.00 0.00 53 1004.1
20260505181539 69 0.0 1.0 0.00 0.00 0.00 53 1004.1
20260505180517 70 0.0 0.0 0.00 0.00 0.00 51 1004.1
20260505175518 71 0.0 0.0 0.00 0.00 0.00 50 1004.2
20260505174518 72 0.0 0.0 0.00 0.00 0.00 48 1004.0
20260505173517 73 94 3.0 6.0 0.00 0.00 0.00 47 1004.1
20260505172518 73 139 1.0 3.0 0.00 0.00 0.00 46 1004.1
20260505171518 74 159 0.0 4.0 0.00 0.00 0.00 45 1004.0
20260505170537 75 73 0.0 2.0 0.00 0.00 0.00 44 1004.2
20260505165558 75 195 1.0 3.0 0.00 0.00 0.00 44 1004.1
20260505164517 76 208 3.0 9.0 0.00 0.00 0.00 44 1004.1
20260505163517 76 247 1.0 11.0 0.00 0.00 0.00 42 1004.2
20260505162518 76 231 3.0 12.0 0.00 0.00 0.00 42 1004.3
20260505161518 76 237 2.0 8.0 0.00 0.00 0.00 41 1004.5
20260505160517 76 0.0 7.0 0.00 0.00 0.00 41 1004.7
20260505152517 79 180 2.0 5.0 0.00 0.00 0.00 35 1004.7
20260505151537 80 186 1.0 9.0 0.00 0.00 0.00 34 1004.6
20260505150538 80 212 0.0 3.0 0.00 0.00 0.00 34 1004.6
20260505140518 82 228 3.0 10.0 0.00 0.00 0.00 29 1004.8